Pickens County Airport, SC

8:37 AM EDT on September 21, 2017 (GMT -0400)
Pickens County

Weather History for KLQK - December, 2013

Change the Weather History Date:

Thursday, December 5, 2013

  Actual Average Record
Temperature  
Mean Temperature 62 °F -  
Max Temperature 67 °F 57 °F 85 °F (2015)
Min Temperature 58 °F 35 °F 26 °F (2015)
Degree Days  
Heating Degree Days 2    
Growing Degree Days 12 (Base 50)    
Moisture  
Dew Point 63 °F    
Average Humidity 100    
Maximum Humidity 100    
Minimum Humidity 100    
Precipitation  
Precipitation 0.00 in - - ()
Sea Level Pressure  
Sea Level Pressure 30.05 in    
Wind  
Wind Speed - (North)    
Max Wind Speed -    
Max Gust Speed -    
Visibility 3 miles    
Events Fog , Rain    
Averages and records for this station are not official NWS values.
T = Trace of Precipitation, MM = Missing Value Source: NWS Daily Summary

Daily Weather History Graph

Daily Weather History Graph

Search for Another Location

Airport or City:

Trip Planner

Search our weather history database for the weather conditions in past years. The results will help you decide how hot, cold, wet, or windy it might be!

Date:

Astronomy

Dec. 05, 2013 Rise Set
Actual Time 7:23 AM EST 5:19 PM EST
Civil Twilight 6:55 AM EST 5:47 PM EST
Nautical Twilight 6:24 AM EST 6:18 PM EST
Astronomical Twilight 5:53 AM EST 6:49 PM EST
Moon 9:45 AM EST (12/5) 8:34 PM EST (12/5)
Length of Visible Light 10h 51m
Length of Day
9h 55m
Waxing Crescent, 10% of the Moon is Illuminated
Dec 5
Waxing Crescent
Dec 9
First Quarter
Dec 17
Full
Dec 25
Last Quarter
Jan 1
New

Hourly Weather History & Observations

Time (EST) Temp. Dew Point Humidity Pressure Visibility Wind Dir Wind Speed Gust Speed Precip Events Conditions
12:15 AM 58.3 °F 58.5 °F 100% 30.06 in 0.2 mi North - - N/A Fog Fog
12:35 AM 58.8 °F 59.0 °F 100% 30.06 in 0.2 mi North - - N/A   Drizzle
12:55 AM 59.0 °F 59.2 °F 100% 30.07 in 0.8 mi North - - N/A Rain Heavy Rain
1:15 AM 59.0 °F 59.2 °F 100% 30.06 in 1.5 mi North - - N/A   Drizzle
1:55 AM 58.8 °F 59.0 °F 100% 30.05 in 4.0 mi North - - N/A   Heavy Drizzle
2:15 AM 59.4 °F 59.5 °F 100% 30.04 in 2.5 mi North - - N/A   Heavy Drizzle
2:35 AM - - N/A% 30.05 in 5.0 mi North - - N/A   Overcast
2:55 AM 60.3 °F 60.4 °F 100% 30.05 in 3.0 mi North - - N/A   Overcast
3:15 AM 60.4 °F 60.8 °F 100% 30.05 in 2.0 mi North - - N/A   Overcast
3:35 AM 60.8 °F 60.8 °F 100% 30.05 in 2.5 mi North - - N/A   Overcast
3:55 AM 61.0 °F 61.2 °F 100% 30.05 in 2.5 mi North - - N/A   Overcast
4:15 AM 61.0 °F 61.2 °F 100% 30.04 in 1.5 mi North - - N/A   Overcast
4:35 AM 61.0 °F 61.2 °F 100% 30.05 in 2.0 mi North - - N/A   Overcast
4:55 AM 61.2 °F 61.3 °F 100% 30.05 in 1.8 mi North - - N/A   Drizzle
5:15 AM 61.0 °F 61.2 °F 100% 30.05 in 1.2 mi North - - N/A   Drizzle
5:35 AM 60.8 °F 61.0 °F 100% 30.06 in 1.8 mi North - - N/A   Overcast
5:55 AM 60.6 °F 60.8 °F 100% 30.06 in 0.8 mi North - - N/A   Overcast
6:15 AM 60.4 °F 60.8 °F 100% 30.06 in 1.0 mi North - - N/A   Overcast
6:35 AM 60.4 °F 60.4 °F 100% 30.07 in 0.5 mi North - - N/A Rain Rain
6:55 AM 60.3 °F 60.4 °F 100% 30.08 in 0.5 mi North - - N/A Rain Rain
7:15 AM 60.3 °F 60.4 °F 100% 30.07 in 0.5 mi North - - N/A   Drizzle
7:35 AM 60.3 °F 60.4 °F 100% 30.08 in 0.2 mi North - - N/A Fog Fog
7:55 AM 60.1 °F 60.3 °F 100% 30.08 in 0.2 mi North - - N/A   Drizzle
8:15 AM 60.1 °F 60.3 °F 100% 30.09 in 0.2 mi North - - N/A Fog Fog
8:35 AM 60.3 °F 60.4 °F 100% 30.09 in 0.2 mi North - - N/A   Light Drizzle
8:55 AM 60.4 °F 60.4 °F 100% 30.10 in 0.5 mi North - - N/A   Light Drizzle
9:15 AM 60.8 °F 60.8 °F 100% 30.10 in 0.8 mi North - - N/A   Overcast
9:35 AM 61.0 °F 61.2 °F 100% 30.10 in 0.2 mi North - - N/A Fog Fog
9:55 AM 61.3 °F 61.5 °F 100% 30.11 in 1.0 mi North - - N/A   Light Drizzle
10:15 AM 61.9 °F 62.2 °F 100% 30.10 in 1.2 mi North - - N/A   Overcast
10:35 AM 62.4 °F 62.6 °F 100% 30.11 in 1.2 mi North - - N/A   Overcast
10:55 AM 62.8 °F 63.0 °F 100% 30.11 in 1.8 mi North - - N/A   Overcast
11:15 AM 62.8 °F 63.0 °F 100% 30.11 in 1.8 mi North - - N/A Rain Rain
11:35 AM 63.0 °F 63.1 °F 100% 30.10 in 1.8 mi North - - N/A Rain Rain
11:55 AM 63.1 °F 63.3 °F 100% 30.09 in 3.0 mi North - - N/A Rain Light Rain
12:15 PM 63.5 °F 63.5 °F 100% 30.08 in 3.0 mi North - - N/A Rain Light Rain
12:35 PM 63.9 °F 64.0 °F 100% 30.07 in 7.0 mi North - - N/A   Overcast
12:55 PM 64.0 °F 64.2 °F 100% 30.07 in 7.0 mi North - - N/A   Overcast
1:15 PM 64.0 °F 64.4 °F 100% 30.06 in 3.0 mi North - - N/A   Overcast
1:35 PM 64.0 °F 64.2 °F 100% 30.05 in 2.0 mi North - - N/A   Overcast
1:55 PM 64.0 °F 64.2 °F 100% 30.04 in 2.5 mi North - - N/A   Overcast
2:15 PM 64.4 °F 64.6 °F 100% 30.03 in 2.5 mi North - - N/A   Overcast
2:35 PM 64.4 °F 64.6 °F 100% 30.03 in 2.0 mi North - - N/A   Overcast
2:55 PM 64.6 °F 64.8 °F 100% 30.04 in 1.2 mi North - - N/A   Drizzle
3:15 PM 65.1 °F 65.1 °F 100% 30.02 in 2.5 mi North - - N/A   Overcast
3:35 PM 65.3 °F 65.5 °F 100% 30.02 in 4.0 mi North - - N/A   Overcast
3:55 PM 65.7 °F 65.8 °F 100% 30.03 in 4.0 mi North - - N/A   Overcast
4:15 PM 65.8 °F 65.8 °F 100% 30.02 in 4.0 mi North - - N/A   Overcast
4:35 PM 65.8 °F 66.0 °F 100% 30.03 in 7.0 mi North - - N/A   Overcast
4:55 PM 65.8 °F 65.8 °F 100% 30.02 in 7.0 mi North - - N/A   Overcast
5:15 PM 65.7 °F 65.8 °F 100% 30.03 in 7.0 mi North - - N/A   Overcast
5:35 PM 65.5 °F 65.7 °F 100% 30.03 in 7.0 mi North - - N/A   Unknown
5:55 PM 65.5 °F 65.7 °F 100% 30.03 in 7.0 mi North - - N/A   Overcast
6:15 PM 65.3 °F 65.5 °F 100% 30.03 in 7.0 mi North - - N/A   Overcast
6:35 PM 65.5 °F 65.7 °F 100% 30.04 in 7.0 mi North - - N/A Rain Light Rain
6:55 PM 65.3 °F 65.5 °F 100% 30.03 in 5.0 mi North - - N/A Rain Rain
7:15 PM 65.3 °F 65.5 °F 100% 30.03 in 5.0 mi North - - N/A Rain Light Rain
7:35 PM 65.3 °F 65.5 °F 100% 30.02 in 5.0 mi North - - N/A Rain Light Rain
7:55 PM 65.5 °F 65.7 °F 100% 30.02 in 5.0 mi North - - N/A   Overcast
8:15 PM 65.8 °F 65.8 °F 100% 30.02 in 4.0 mi North - - N/A   Overcast
8:35 PM 66.2 °F 66.2 °F 100% 30.02 in 5.0 mi North - - N/A   Overcast
8:55 PM 66.4 °F 66.6 °F 100% 30.02 in 5.0 mi North - - N/A   Overcast
9:15 PM 66.6 °F 66.9 °F 100% 30.01 in 7.0 mi North - - N/A   Overcast
9:35 PM 67.1 °F 67.1 °F 100% 30.02 in 7.0 mi North - - N/A   Overcast
9:55 PM 67.1 °F 67.3 °F 100% 30.02 in 7.0 mi North - - N/A   Overcast
10:15 PM 67.3 °F 67.5 °F 100% 30.03 in 7.0 mi North - - N/A Rain Light Rain
10:35 PM 67.5 °F 67.6 °F 100% 30.03 in 10.0 mi North - - N/A   Overcast
10:55 PM 67.5 °F 67.6 °F 100% 30.03 in 7.0 mi North - - N/A   Overcast
11:15 PM 67.3 °F 67.5 °F 100% 30.03 in 7.0 mi North - - N/A Rain Rain
11:35 PM 67.3 °F 67.5 °F 100% 30.03 in 4.0 mi North - - N/A Rain Light Rain
11:55 PM 67.3 °F 67.5 °F 100% 30.03 in 7.0 mi North - - N/A   Overcast